| time (UTC) | temp F | wind direction | speed MPH | gust MPH | rain 1hr in | rain 24hr in | rain mn in | humidity % | barometer mb |
| 20260901100246 | 73 | 337 | 2.0 | 2.0 | 0.00 | 0.00 | 0.00 | 99 | 1022.5 |
| 20260901095744 | 73 | 334 | 1.0 | 2.0 | 0.00 | 0.00 | 0.00 | 99 | 1022.6 |
| 20260901095242 | 73 | 335 | 1.0 | 2.0 | 0.00 | 0.00 | 0.00 | 99 | 1022.5 |
| 20260901094736 | 73 | 344 | 2.0 | 2.0 | 0.00 | 0.00 | 0.00 | 99 | 1022.3 |
| 20260901094231 | 73 | 335 | 2.0 | 2.0 | 0.00 | 0.00 | 0.00 | 99 | 1022.5 |
| 20260901093726 | 73 | 338 | 2.0 | 2.0 | 0.00 | 0.00 | 0.00 | 99 | 1022.3 |
| 20260901093225 | 73 | 327 | 1.0 | 2.0 | 0.00 | 0.00 | 0.00 | 99 | 1022.4 |
| 20260901092721 | 73 | 9 | 1.0 | 1.0 | 0.00 | 0.00 | 0.00 | 99 | 1022.3 |
| 20260901092217 | 73 | 339 | 2.0 | 2.0 | 0.00 | 0.00 | 0.00 | 99 | 1022.2 |
| 20260901091713 | 73 | 341 | 1.0 | 2.0 | 0.00 | 0.00 | 0.00 | 99 | 1022.3 |
| 20260901091208 | 73 | 338 | 2.0 | 3.0 | 0.00 | 0.00 | 0.00 | 99 | 1022.2 |
| 20260901090702 | 73 | 335 | 2.0 | 3.0 | 0.00 | 0.00 | 0.00 | 98 | 1022.4 |
| 20260901090157 | 73 | 346 | 2.0 | 2.0 | 0.00 | 0.00 | 0.00 | 98 | 1022.1 |
| 20260901085654 | 73 | 341 | 2.0 | 2.0 | 0.00 | 0.00 | 0.00 | 98 | 1022.2 |
| 20260901085149 | 73 | 2 | 1.0 | 2.0 | 0.00 | 0.00 | 0.00 | 98 | 1021.9 |
| 20260901084645 | 73 | 341 | 2.0 | 2.0 | 0.00 | 0.00 | 0.00 | 98 | 1022.1 |
| 20260901084141 | 73 | 342 | 2.0 | 2.0 | 0.00 | 0.00 | 0.00 | 98 | 1021.9 |
| 20260901083641 | 73 | 340 | 2.0 | 2.0 | 0.00 | 0.00 | 0.00 | 98 | 1022.1 |
| 20260901083140 | 73 | 337 | 2.0 | 2.0 | 0.00 | 0.00 | 0.00 | 98 | 1022.0 |
| 20260901082640 | 73 | 337 | 2.0 | 2.0 | 0.00 | 0.00 | 0.00 | 97 | 1022.0 |
| 20260901082136 | 73 | 328 | 2.0 | 2.0 | 0.00 | 0.00 | 0.00 | 97 | 1022.1 |
| 20260901081631 | 73 | 312 | 2.0 | 2.0 | 0.00 | 0.00 | 0.00 | 97 | 1022.0 |
| 20260901081125 | 73 | 321 | 2.0 | 2.0 | 0.00 | 0.00 | 0.00 | 97 | 1022.0 |
| 20260901080619 | 73 | 348 | 2.0 | 2.0 | 0.00 | 0.00 | 0.00 | 97 | 1022.2 |
| 20260901080118 | 73 | 342 | 2.0 | 2.0 | 0.00 | 0.00 | 0.00 | 97 | 1021.9 |
| 20260901075614 | 74 | 335 | 2.0 | 2.0 | 0.00 | 0.00 | 0.00 | 96 | 1021.9 |
| 20260901075114 | 73 | 341 | 2.0 | 2.0 | 0.00 | 0.00 | 0.00 | 96 | 1021.9 |
| 20260901074613 | 73 | 344 | 2.0 | 2.0 | 0.00 | 0.00 | 0.00 | 96 | 1021.9 |
| 20260901074108 | 74 | 339 | 2.0 | 2.0 | 0.00 | 0.00 | 0.00 | 96 | 1021.8 |
| 20260901073605 | 74 | 332 | 2.0 | 2.0 | 0.00 | 0.00 | 0.00 | 96 | 1021.8 |
| 20260901073105 | 74 | 329 | 2.0 | 2.0 | 0.00 | 0.00 | 0.00 | 97 | 1021.9 |
| 20260901072600 | 74 | 313 | 1.0 | 2.0 | 0.00 | 0.00 | 0.00 | 97 | 1021.9 |
| 20260901072055 | 74 | 331 | 2.0 | 3.0 | 0.00 | 0.00 | 0.00 | 96 | 1022.0 |
| 20260901071555 | 74 | 341 | 2.0 | 2.0 | 0.00 | 0.00 | 0.00 | 97 | 1021.9 |
| 20260901071054 | 74 | 335 | 2.0 | 2.0 | 0.00 | 0.00 | 0.00 | 97 | 1021.9 |
| 20260901070549 | 74 | 332 | 2.0 | 3.0 | 0.00 | 0.00 | 0.00 | 97 | 1022.0 |
| 20260901070044 | 74 | 356 | 1.0 | 2.0 | 0.00 | 0.00 | 0.00 | 97 | 1022.1 |
| 20260901065538 | 74 | 331 | 1.0 | 2.0 | 0.00 | 0.00 | 0.00 | 97 | 1022.0 |
| 20260901065033 | 74 | 339 | 2.0 | 3.0 | 0.00 | 0.00 | 0.00 | 96 | 1022.0 |
| 20260901064530 | 74 | 328 | 1.0 | 2.0 | 0.00 | 0.00 | 0.00 | 97 | 1022.1 |
| 20260901064026 | 74 | 355 | 1.0 | 2.0 | 0.00 | 0.00 | 0.00 | 96 | 1022.1 |
| 20260901063523 | 75 | 339 | 2.0 | 2.0 | 0.00 | 0.00 | 0.00 | 96 | 1022.2 |
| 20260901063019 | 74 | 338 | 2.0 | 2.0 | 0.00 | 0.00 | 0.00 | 96 | 1022.3 |
| 20260901062514 | 74 | 334 | 2.0 | 2.0 | 0.00 | 0.00 | 0.00 | 96 | 1022.1 |
| 20260901062011 | 74 | 335 | 2.0 | 2.0 | 0.00 | 0.00 | 0.00 | 95 | 1022.5 |
| 20260901061507 | 74 | 335 | 2.0 | 3.0 | 0.00 | 0.00 | 0.00 | 95 | 1022.4 |
| 20260901061007 | 74 | 341 | 2.0 | 2.0 | 0.00 | 0.00 | 0.00 | 95 | 1022.3 |
| 20260901060501 | 75 | 331 | 2.0 | 2.0 | 0.00 | 0.00 | 0.00 | 95 | 1022.2 |
| 20260901060001 | 74 | 332 | 2.0 | 2.0 | 0.00 | 0.00 | 0.00 | 95 | 1022.3 |
| 20260901055457 | 75 | 345 | 1.0 | 2.0 | 0.00 | 0.00 | 0.00 | 95 | 1022.5 |
| 20260901054954 | 74 | 336 | 2.0 | 2.0 | 0.00 | 0.00 | 0.00 | 94 | 1022.2 |
| 20260901054451 | 74 | 338 | 2.0 | 2.0 | 0.00 | 0.00 | 0.00 | 94 | 1022.3 |
| 20260901053947 | 75 | 336 | 2.0 | 2.0 | 0.00 | 0.00 | 0.00 | 94 | 1022.3 |
| 20260901053442 | 75 | 340 | 2.0 | 2.0 | 0.00 | 0.00 | 0.00 | 94 | 1022.2 |
| 20260901052937 | 75 | 330 | 2.0 | 2.0 | 0.00 | 0.00 | 0.00 | 94 | 1022.2 |
| 20260901052433 | 75 | 355 | 2.0 | 2.0 | 0.00 | 0.00 | 0.00 | 94 | 1022.5 |
| 20260901051931 | 75 | 341 | 2.0 | 2.0 | 0.00 | 0.00 | 0.00 | 93 | 1022.4 |
| 20260901051427 | 75 | 336 | 2.0 | 2.0 | 0.00 | 0.00 | 0.00 | 93 | 1022.5 |
| 20260901050927 | 75 | 340 | 2.0 | 3.0 | 0.00 | 0.00 | 0.00 | 93 | 1022.5 |
| 20260901050423 | 75 | 346 | 2.0 | 2.0 | 0.00 | 0.00 | 0.00 | 93 | 1022.2 |
| 20260901045922 | 75 | 339 | 2.0 | 3.0 | 0.00 | 0.00 | 0.00 | 92 | 1022.3 |
| 20260901045418 | 75 | 347 | 2.0 | 2.0 | 0.00 | 0.00 | 0.00 | 92 | 1022.3 |
| 20260901044912 | 76 | 329 | 2.0 | 2.0 | 0.00 | 0.00 | 0.00 | 92 | 1022.5 |
| 20260901044409 | 76 | 335 | 2.0 | 2.0 | 0.00 | 0.00 | 0.00 | 92 | 1022.3 |
| 20260901043904 | 76 | 336 | 2.0 | 2.0 | 0.00 | 0.00 | 0.00 | 92 | 1022.3 |
| 20260901043355 | 76 | 337 | 2.0 | 2.0 | 0.00 | 0.00 | 0.00 | 92 | 1022.3 |
| 20260901042854 | 76 | 336 | 2.0 | 2.0 | 0.00 | 0.00 | 0.00 | 91 | 1022.1 |
| 20260901042349 | 76 | 337 | 2.0 | 2.0 | 0.00 | 0.00 | 0.00 | 91 | 1022.1 |
| 20260901041844 | 76 | 334 | 1.0 | 2.0 | 0.00 | 0.00 | 0.00 | 91 | 1022.2 |
| 20260901041340 | 76 | 334 | 2.0 | 2.0 | 0.00 | 0.00 | 0.00 | 90 | 1022.1 |
| 20260901040839 | 76 | 335 | 2.0 | 2.0 | 0.00 | 0.00 | 0.00 | 90 | 1022.3 |
| 20260901040339 | 76 | 338 | 2.0 | 2.0 | 0.00 | 0.00 | 0.00 | 90 | 1022.2 |
| 20260901035838 | 76 | 342 | 2.0 | 2.0 | 0.00 | 0.00 | 0.00 | 89 | 1022.1 |
| 20260901035337 | 76 | 339 | 2.0 | 2.0 | 0.00 | 0.00 | 0.00 | 89 | 1022.2 |
| 20260901034836 | 76 | 336 | 2.0 | 2.0 | 0.00 | 0.00 | 0.00 | 89 | 1022.2 |
| 20260901034331 | 76 | 337 | 2.0 | 2.0 | 0.00 | 0.00 | 0.00 | 88 | 1022.1 |
| 20260901033825 | 76 | 335 | 2.0 | 2.0 | 0.00 | 0.00 | 0.00 | 88 | 1022.1 |
| 20260901033324 | 76 | 334 | 2.0 | 2.0 | 0.00 | 0.00 | 0.00 | 88 | 1022.1 |
| 20260901032823 | 76 | 333 | 2.0 | 2.0 | 0.00 | 0.00 | 0.00 | 87 | 1022.1 |
| 20260901032322 | 77 | 338 | 2.0 | 2.0 | 0.00 | 0.00 | 0.00 | 87 | 1022.1 |
| 20260901031817 | 77 | 333 | 2.0 | 2.0 | 0.00 | 0.00 | 0.00 | 86 | 1022.1 |
| 20260901031313 | 77 | 332 | 2.0 | 2.0 | 0.00 | 0.00 | 0.00 | 85 | 1022.3 |
| 20260901030813 | 77 | 334 | 2.0 | 4.0 | 0.00 | 0.00 | 0.00 | 85 | 1022.1 |
| 20260901030308 | 77 | 341 | 2.0 | 3.0 | 0.00 | 0.00 | 0.00 | 86 | 1022.4 |
| 20260901025807 | 77 | 334 | 2.0 | 2.0 | 0.00 | 0.00 | 0.00 | 84 | 1022.2 |
| 20260901025305 | 77 | 340 | 2.0 | 3.0 | 0.00 | 0.00 | 0.00 | 84 | 1022.3 |
| 20260901024757 | 77 | 333 | 2.0 | 2.0 | 0.00 | 0.00 | 0.00 | 84 | 1022.3 |
| 20260901024256 | 78 | 343 | 1.0 | 2.0 | 0.00 | 0.00 | 0.00 | 84 | 1022.3 |
| 20260901023754 | 78 | 335 | 2.0 | 2.0 | 0.00 | 0.00 | 0.00 | 83 | 1022.2 |
| 20260901023250 | 78 | 341 | 1.0 | 3.0 | 0.00 | 0.00 | 0.00 | 84 | 1022.2 |
| 20260901022745 | 78 | 338 | 1.0 | 2.0 | 0.00 | 0.00 | 0.00 | 82 | 1022.1 |
| 20260901022241 | 78 | 335 | 2.0 | 2.0 | 0.00 | 0.00 | 0.00 | 82 | 1022.3 |
| 20260901021736 | 78 | 336 | 2.0 | 2.0 | 0.00 | 0.00 | 0.00 | 81 | 1022.2 |
| 20260901021231 | 78 | 2 | 2.0 | 2.0 | 0.00 | 0.00 | 0.00 | 81 | 1022.0 |
| 20260901020727 | 78 | 333 | 2.0 | 2.0 | 0.00 | 0.00 | 0.00 | 80 | 1021.9 |
| 20260901020222 | 78 | 322 | 1.0 | 2.0 | 0.00 | 0.00 | 0.00 | 81 | 1022.1 |
| 20260901015717 | 78 | 334 | 2.0 | 3.0 | 0.00 | 0.00 | 0.00 | 80 | 1021.8 |
| 20260901015213 | 78 | 337 | 2.0 | 2.0 | 0.00 | 0.00 | 0.00 | 80 | 1021.8 |
| 20260901014712 | 79 | 359 | 1.0 | 2.0 | 0.00 | 0.00 | 0.00 | 79 | 1021.8 |
| 20260901014208 | 79 | 348 | 2.0 | 2.0 | 0.00 | 0.00 | 0.00 | 79 | 1021.7 |
| 20260901013703 | 79 | 327 | 2.0 | 3.0 | 0.00 | 0.00 | 0.00 | 79 | 1021.6 |
| 20260901013159 | 79 | 353 | 2.0 | 2.0 | 0.00 | 0.00 | 0.00 | 80 | 1021.6 |
| 20260901012654 | 79 | 335 | 2.0 | 4.0 | 0.00 | 0.00 | 0.00 | 78 | 1021.6 |
| 20260901012149 | 79 | 335 | 2.0 | 3.0 | 0.00 | 0.00 | 0.00 | 77 | 1021.5 |
| 20260901011645 | 79 | 335 | 2.0 | 3.0 | 0.00 | 0.00 | 0.00 | 77 | 1021.4 |
| 20260901011144 | 79 | 342 | 2.0 | 2.0 | 0.00 | 0.00 | 0.00 | 77 | 1021.6 |
| 20260901010639 | 79 | 340 | 2.0 | 2.0 | 0.00 | 0.00 | 0.00 | 77 | 1021.6 |
| 20260901010138 | 79 | 343 | 2.0 | 2.0 | 0.00 | 0.00 | 0.00 | 77 | 1021.3 |
| 20260901005638 | 80 | 348 | 1.0 | 2.0 | 0.00 | 0.00 | 0.00 | 76 | 1021.5 |
| 20260901005133 | 80 | 333 | 2.0 | 2.0 | 0.00 | 0.00 | 0.00 | 77 | 1021.2 |
| 20260901004632 | 80 | 337 | 2.0 | 2.0 | 0.00 | 0.00 | 0.00 | 78 | 1021.1 |
| 20260901004128 | 81 | 344 | 2.0 | 2.0 | 0.00 | 0.00 | 0.00 | 77 | 1021.2 |
| 20260901003622 | 80 | 332 | 2.0 | 2.0 | 0.00 | 0.00 | 0.00 | 77 | 1021.0 |
| 20260901003121 | 81 | 329 | 2.0 | 3.0 | 0.00 | 0.00 | 0.00 | 76 | 1021.0 |
| 20260901002615 | 81 | 335 | 2.0 | 3.0 | 0.00 | 0.00 | 0.00 | 77 | 1020.8 |
| 20260901002110 | 82 | 331 | 2.0 | 3.0 | 0.00 | 0.00 | 0.00 | 76 | 1020.9 |
| 20260901001605 | 82 | 335 | 2.0 | 3.0 | 0.00 | 0.00 | 0.00 | 76 | 1020.8 |
| 20260901001100 | 82 | 341 | 2.0 | 2.0 | 0.00 | 0.00 | 0.00 | 75 | 1021.0 |
| 20260901000555 | 83 | 335 | 2.0 | 2.0 | 0.00 | 0.00 | 0.00 | 75 | 1020.8 |
| 20260901000052 | 83 | 333 | 2.0 | 3.0 | 0.00 | 0.00 | 0.00 | 74 | 1020.8 |
| 20260831235545 | 83 | 335 | 2.0 | 2.0 | 0.00 | 0.00 | 0.00 | 74 | 1021.1 |
| 20260831235041 | 83 | 350 | 2.0 | 2.0 | 0.00 | 0.00 | 0.00 | 74 | 1021.0 |
| 20260831234540 | 84 | 338 | 2.0 | 2.0 | 0.00 | 0.00 | 0.00 | 72 | 1020.9 |
| 20260831234036 | 84 | 341 | 1.0 | 3.0 | 0.00 | 0.00 | 0.00 | 72 | 1020.9 |
| 20260831233531 | 85 | 337 | 2.0 | 2.0 | 0.00 | 0.00 | 0.00 | 72 | 1020.8 |
| 20260831233027 | 85 | 340 | 2.0 | 2.0 | 0.00 | 0.00 | 0.00 | 69 | 1020.9 |
| 20260831232521 | 85 | 339 | 2.0 | 2.0 | 0.00 | 0.00 | 0.00 | 67 | 1021.1 |
| 20260831232017 | 86 | 334 | 2.0 | 2.0 | 0.00 | 0.00 | 0.00 | 64 | 1021.0 |
| 20260831231514 | 87 | 333 | 1.0 | 2.0 | 0.00 | 0.00 | 0.00 | 66 | 1021.0 |
| 20260831231009 | 87 | 324 | 1.0 | 2.0 | 0.00 | 0.00 | 0.00 | 62 | 1021.1 |
| 20260831230504 | 89 | 345 | 1.0 | 1.0 | 0.00 | 0.00 | 0.00 | 61 | 1021.1 |
| 20260831225958 | 91 | 125 | 0.0 | 0.0 | 0.00 | 0.00 | 0.00 | 54 | 1021.0 |
| 20260831225455 | 92 | 351 | 1.0 | 1.0 | 0.00 | 0.00 | 0.00 | 55 | 1021.2 |
| 20260831224949 | 94 | 79 | 0.0 | 1.0 | 0.00 | 0.00 | 0.00 | 52 | 1021.1 |
| 20260831224448 | 96 | 157 | 0.0 | 0.0 | 0.00 | 0.00 | 0.00 | 51 | 1021.3 |
| 20260831223943 | 94 | 123 | 0.0 | 0.0 | 0.00 | 0.00 | 0.00 | 52 | 1021.5 |
| 20260831223439 | 92 | 105 | 0.0 | 1.0 | 0.00 | 0.00 | 0.00 | 52 | 1021.2 |
| 20260831222935 | 92 | 104 | 0.0 | 3.0 | 0.00 | 0.00 | 0.00 | 57 | 1021.4 |
| 20260831222431 | 91 | 107 | 2.0 | 2.0 | 0.00 | 0.00 | 0.00 | 53 | 1021.1 |
| 20260831221926 | 91 | 90 | 2.0 | 3.0 | 0.00 | 0.00 | 0.00 | 53 | 1021.2 |
| 20260831221422 | 91 | 102 | 2.0 | 2.0 | 0.00 | 0.00 | 0.00 | 57 | 1021.2 |
| 20260831220917 | 91 | 103 | 2.0 | 4.0 | 0.00 | 0.00 | 0.00 | 53 | 1021.2 |
| 20260831220412 | 91 | 100 | 2.0 | 4.0 | 0.00 | 0.00 | 0.00 | 57 | 1021.2 |
| 20260831215907 | 91 | 107 | 2.0 | 4.0 | 0.00 | 0.00 | 0.00 | 53 | 1021.3 |
| 20260831215403 | 91 | 96 | 3.0 | 3.0 | 0.00 | 0.00 | 0.00 | 51 | 1021.2 |
| 20260831214859 | 91 | 91 | 3.0 | 4.0 | 0.00 | 0.00 | 0.00 | 52 | 1021.5 |
| 20260831214356 | 91 | 107 | 3.0 | 4.0 | 0.00 | 0.00 | 0.00 | 53 | 1021.3 |
| 20260831213851 | 91 | 82 | 2.0 | 4.0 | 0.00 | 0.00 | 0.00 | 51 | 1021.5 |
| 20260831213348 | 92 | 99 | 2.0 | 3.0 | 0.00 | 0.00 | 0.00 | 53 | 1021.5 |
| 20260831212843 | 92 | 115 | 1.0 | 4.0 | 0.00 | 0.00 | 0.00 | 48 | 1021.7 |
| 20260831212339 | 92 | 113 | 2.0 | 2.0 | 0.00 | 0.00 | 0.00 | 49 | 1021.8 |
| 20260831211838 | 91 | 111 | 3.0 | 3.0 | 0.00 | 0.00 | 0.00 | 53 | 1021.5 |
| 20260831211333 | 93 | 108 | 1.0 | 3.0 | 0.00 | 0.00 | 0.00 | 48 | 1021.7 |
| 20260831210833 | 92 | 86 | 2.0 | 2.0 | 0.00 | 0.00 | 0.00 | 49 | 1021.4 |
| 20260831210329 | 92 | 129 | 2.0 | 3.0 | 0.00 | 0.00 | 0.00 | 48 | 1021.6 |
| 20260831205829 | 93 | 123 | 2.0 | 2.0 | 0.00 | 0.00 | 0.00 | 47 | 1021.6 |
| 20260831205325 | 92 | 98 | 2.0 | 2.0 | 0.00 | 0.00 | 0.00 | 50 | 1021.8 |
| 20260831204819 | 92 | 89 | 3.0 | 3.0 | 0.00 | 0.00 | 0.00 | 52 | 1021.7 |
| 20260831204319 | 92 | 117 | 2.0 | 2.0 | 0.00 | 0.00 | 0.00 | 47 | 1021.7 |
| 20260831203818 | 92 | 106 | 2.0 | 2.0 | 0.00 | 0.00 | 0.00 | 51 | 1021.7 |
| 20260831203312 | 91 | 96 | 2.0 | 4.0 | 0.00 | 0.00 | 0.00 | 52 | 1021.8 |
| 20260831202811 | 91 | 114 | 2.0 | 3.0 | 0.00 | 0.00 | 0.00 | 51 | 1021.8 |
| 20260831202306 | 91 | 101 | 2.0 | 3.0 | 0.00 | 0.00 | 0.00 | 49 | 1022.1 |
| 20260831201806 | 91 | 95 | 2.0 | 3.0 | 0.00 | 0.00 | 0.00 | 50 | 1021.9 |
| 20260831201305 | 92 | 100 | 2.0 | 3.0 | 0.00 | 0.00 | 0.00 | 52 | 1022.1 |
| 20260831200801 | 91 | 113 | 2.0 | 3.0 | 0.00 | 0.00 | 0.00 | 45 | 1022.1 |
| 20260831200256 | 91 | 110 | 2.0 | 3.0 | 0.00 | 0.00 | 0.00 | 50 | 1022.3 |
| 20260831195751 | 91 | 124 | 2.0 | 3.0 | 0.00 | 0.00 | 0.00 | 55 | 1022.3 |
| 20260831195247 | 91 | 147 | 2.0 | 3.0 | 0.00 | 0.00 | 0.00 | 48 | 1022.5 |
| 20260831194741 | 91 | 116 | 2.0 | 4.0 | 0.00 | 0.00 | 0.00 | 51 | 1022.7 |
| 20260831194237 | 91 | 98 | 3.0 | 4.0 | 0.00 | 0.00 | 0.00 | 47 | 1022.5 |
| 20260831193730 | 91 | 98 | 2.0 | 3.0 | 0.00 | 0.00 | 0.00 | 49 | 1022.9 |
| 20260831193226 | 91 | 106 | 2.0 | 3.0 | 0.00 | 0.00 | 0.00 | 55 | 1022.7 |
| 20260831192721 | 91 | 100 | 3.0 | 3.0 | 0.00 | 0.00 | 0.00 | 56 | 1022.9 |
| 20260831192216 | 92 | 129 | 1.0 | 1.0 | 0.00 | 0.00 | 0.00 | 52 | 1022.6 |
| 20260831191712 | 92 | 122 | 1.0 | 1.0 | 0.00 | 0.00 | 0.00 | 54 | 1022.9 |
| 20260831191208 | 92 | 117 | 1.0 | 1.0 | 0.00 | 0.00 | 0.00 | 55 | 1022.6 |
| 20260831190703 | 92 | 137 | 0.0 | 1.0 | 0.00 | 0.00 | 0.00 | 53 | 1022.9 |
| 20260831190202 | 92 | 99 | 1.0 | 2.0 | 0.00 | 0.00 | 0.00 | 53 | 1022.7 |
| 20260831185659 | 97 | 158 | 0.0 | 1.0 | 0.00 | 0.00 | 0.00 | 46 | 1023.1 |
| 20260831185154 | 98 | 154 | 0.0 | 1.0 | 0.00 | 0.00 | 0.00 | 46 | 1023.0 |
| 20260831184653 | 96 | 173 | 0.0 | 0.0 | 0.00 | 0.00 | 0.00 | 50 | 1023.0 |
| 20260831184149 | 93 | 156 | 0.0 | 0.0 | 0.00 | 0.00 | 0.00 | 53 | 1023.1 |
| 20260831183648 | 91 | 137 | 0.0 | 1.0 | 0.00 | 0.00 | 0.00 | 54 | 1023.2 |
| 20260831183148 | 90 | 134 | 1.0 | 1.0 | 0.00 | 0.00 | 0.00 | 59 | 1023.1 |
| 20260831182647 | 90 | 120 | 1.0 | 2.0 | 0.00 | 0.00 | 0.00 | 57 | 1023.2 |
| 20260831182143 | 90 | 123 | 1.0 | 1.0 | 0.00 | 0.00 | 0.00 | 57 | 1023.2 |
| 20260831181637 | 91 | 139 | 0.0 | 1.0 | 0.00 | 0.00 | 0.00 | 58 | 1023.4 |
| 20260831181132 | 91 | 149 | 0.0 | 1.0 | 0.00 | 0.00 | 0.00 | 59 | 1023.4 |
| 20260831180627 | 90 | 140 | 0.0 | 2.0 | 0.00 | 0.00 | 0.00 | 59 | 1023.5 |
| 20260831180122 | 91 | 149 | 1.0 | 1.0 | 0.00 | 0.00 | 0.00 | 59 | 1023.8 |
| 20260831175616 | 90 | 151 | 1.0 | 2.0 | 0.00 | 0.00 | 0.00 | 59 | 1023.7 |
| 20260831175114 | 89 | 158 | 0.0 | 1.0 | 0.00 | 0.00 | 0.00 | 60 | 1023.6 |
| 20260831174614 | 89 | 142 | 1.0 | 2.0 | 0.00 | 0.00 | 0.00 | 62 | 1023.6 |
| 20260831174113 | 88 | 137 | 1.0 | 2.0 | 0.00 | 0.00 | 0.00 | 65 | 1023.8 |
| 20260831173612 | 88 | 138 | 2.0 | 2.0 | 0.00 | 0.00 | 0.00 | 66 | 1023.8 |
| 20260831173108 | 88 | 137 | 1.0 | 2.0 | 0.00 | 0.00 | 0.00 | 66 | 1023.9 |
| 20260831172603 | 88 | 124 | 1.0 | 1.0 | 0.00 | 0.00 | 0.00 | 65 | 1023.8 |
| 20260831172057 | 89 | 142 | 1.0 | 2.0 | 0.00 | 0.00 | 0.00 | 64 | 1023.7 |
| 20260831171553 | 91 | 167 | 0.0 | 1.0 | 0.00 | 0.00 | 0.00 | 64 | 1023.8 |
| 20260831171050 | 88 | 198 | 2.0 | 2.0 | 0.00 | 0.00 | 0.00 | 69 | 1023.8 |
| 20260831170546 | 88 | 132 | 2.0 | 2.0 | 0.00 | 0.00 | 0.00 | 67 | 1023.9 |
| 20260831170044 | 89 | 147 | 1.0 | 2.0 | 0.00 | 0.00 | 0.00 | 66 | 1023.9 |
| 20260831165543 | 89 | 140 | 1.0 | 1.0 | 0.00 | 0.00 | 0.00 | 67 | 1024.1 |
| 20260831165040 | 88 | 148 | 1.0 | 2.0 | 0.00 | 0.00 | 0.00 | 65 | 1024.2 |
| 20260831164536 | 90 | 158 | 1.0 | 1.0 | 0.00 | 0.00 | 0.00 | 64 | 1024.0 |
| 20260831164031 | 88 | 159 | 0.0 | 2.0 | 0.00 | 0.00 | 0.00 | 65 | 1024.4 |
| 20260831163526 | 88 | 150 | 1.0 | 2.0 | 0.00 | 0.00 | 0.00 | 65 | 1024.4 |
| 20260831163022 | 88 | 144 | 1.0 | 2.0 | 0.00 | 0.00 | 0.00 | 67 | 1024.3 |
| 20260831162520 | 87 | 140 | 1.0 | 2.0 | 0.00 | 0.00 | 0.00 | 69 | 1024.3 |
| 20260831162018 | 87 | 159 | 1.0 | 2.0 | 0.00 | 0.00 | 0.00 | 67 | 1024.4 |
| 20260831161515 | 90 | 157 | 0.0 | 0.0 | 0.00 | 0.00 | 0.00 | 66 | 1024.4 |
| 20260831161011 | 89 | 159 | 0.0 | 0.0 | 0.00 | 0.00 | 0.00 | 68 | 1024.4 |
| 20260831160510 | 86 | 131 | 0.0 | 2.0 | 0.00 | 0.00 | 0.00 | 71 | 1024.6 |
| 20260831160006 | 88 | 139 | 1.0 | 1.0 | 0.00 | 0.00 | 0.00 | 67 | 1024.6 |
| 20260831155505 | 90 | 153 | 0.0 | 0.0 | 0.00 | 0.00 | 0.00 | 65 | 1024.8 |
| 20260831155001 | 92 | 172 | 0.0 | 1.0 | 0.00 | 0.00 | 0.00 | 64 | 1024.6 |
| 20260831154457 | 91 | 173 | 1.0 | 1.0 | 0.00 | 0.00 | 0.00 | 64 | 1024.7 |
| 20260831153956 | 90 | 170 | 0.0 | 1.0 | 0.00 | 0.00 | 0.00 | 66 | 1024.6 |
| 20260831153451 | 89 | 171 | 0.0 | 1.0 | 0.00 | 0.00 | 0.00 | 67 | 1024.5 |
| 20260831152948 | 90 | 185 | 1.0 | 2.0 | 0.00 | 0.00 | 0.00 | 67 | 1024.4 |
| 20260831152443 | 90 | 161 | 0.0 | 1.0 | 0.00 | 0.00 | 0.00 | 67 | 1024.6 |
| 20260831151938 | 92 | 161 | 0.0 | 1.0 | 0.00 | 0.00 | 0.00 | 64 | 1024.6 |
| 20260831151437 | 91 | 156 | 0.0 | 0.0 | 0.00 | 0.00 | 0.00 | 64 | 1024.5 |
| 20260831150933 | 90 | 169 | 0.0 | 0.0 | 0.00 | 0.00 | 0.00 | 67 | 1024.8 |
| 20260831150428 | 89 | 168 | 0.0 | 0.0 | 0.00 | 0.00 | 0.00 | 69 | 1024.8 |
| 20260831145927 | 87 | 159 | 1.0 | 2.0 | 0.00 | 0.00 | 0.00 | 70 | 1024.9 |
| 20260831145424 | 88 | 152 | 0.0 | 0.0 | 0.00 | 0.00 | 0.00 | 69 | 1025.0 |
| 20260831144919 | 87 | 162 | 0.0 | 1.0 | 0.00 | 0.00 | 0.00 | 71 | 1024.9 |
| 20260831144409 | 87 | 158 | 0.0 | 1.0 | 0.00 | 0.00 | 0.00 | 72 | 1024.6 |
| 20260831143910 | 85 | 139 | 1.0 | 2.0 | 0.00 | 0.00 | 0.00 | 74 | 1024.9 |
| 20260831143405 | 88 | 144 | 0.0 | 1.0 | 0.00 | 0.00 | 0.00 | 69 | 1024.7 |
| 20260831142901 | 89 | 176 | 0.0 | 1.0 | 0.00 | 0.00 | 0.00 | 69 | 1024.8 |
| 20260831142356 | 89 | 172 | 0.0 | 1.0 | 0.00 | 0.00 | 0.00 | 70 | 1024.7 |
| 20260831141855 | 87 | 180 | 0.0 | 1.0 | 0.00 | 0.00 | 0.00 | 72 | 1024.9 |
| 20260831141349 | 87 | 191 | 1.0 | 1.0 | 0.00 | 0.00 | 0.00 | 73 | 1024.9 |
| 20260831140845 | 86 | 162 | 0.0 | 1.0 | 0.00 | 0.00 | 0.00 | 75 | 1024.8 |
| 20260831140339 | 85 | 183 | 0.0 | 1.0 | 0.00 | 0.00 | 0.00 | 76 | 1024.8 |
| 20260831135838 | 85 | 216 | 1.0 | 2.0 | 0.00 | 0.00 | 0.00 | 73 | 1024.5 |
| 20260831135333 | 87 | 175 | 0.0 | 1.0 | 0.00 | 0.00 | 0.00 | 76 | 1024.7 |
| 20260831134828 | 85 | 143 | 0.0 | 1.0 | 0.00 | 0.00 | 0.00 | 78 | 1024.6 |
| 20260831134325 | 85 | 176 | 1.0 | 1.0 | 0.00 | 0.00 | 0.00 | 80 | 1024.6 |
| 20260831133824 | 85 | 174 | 1.0 | 2.0 | 0.00 | 0.00 | 0.00 | 83 | 1024.6 |
| 20260831133324 | 84 | 172 | 0.0 | 1.0 | 0.00 | 0.00 | 0.00 | 84 | 1024.7 |
| 20260831132820 | 82 | 127 | 1.0 | 1.0 | 0.00 | 0.00 | 0.00 | 85 | 1024.7 |
| 20260831132315 | 85 | 168 | 0.0 | 1.0 | 0.00 | 0.00 | 0.00 | 83 | 1024.7 |
| 20260831131814 | 84 | 155 | 0.0 | 1.0 | 0.00 | 0.00 | 0.00 | 81 | 1024.8 |
| 20260831131311 | 85 | 159 | 0.0 | 1.0 | 0.00 | 0.00 | 0.00 | 82 | 1024.6 |
| 20260831130805 | 84 | 165 | 0.0 | 1.0 | 0.00 | 0.00 | 0.00 | 84 | 1024.7 |
| 20260831130301 | 85 | 171 | 1.0 | 1.0 | 0.00 | 0.00 | 0.00 | 84 | 1024.8 |
| 20260831125800 | 83 | 147 | 0.0 | 1.0 | 0.00 | 0.00 | 0.00 | 85 | 1024.5 |
| 20260831125256 | 83 | 160 | 0.0 | 0.0 | 0.00 | 0.00 | 0.00 | 91 | 1024.5 |
| 20260831124755 | 81 | 153 | 0.0 | 1.0 | 0.00 | 0.00 | 0.00 | 92 | 1024.4 |
| 20260831124252 | 79 | 160 | 0.0 | 1.0 | 0.00 | 0.00 | 0.00 | 96 | 1024.5 |
| 20260831123752 | 79 | 163 | 0.0 | 0.0 | 0.00 | 0.00 | 0.00 | 98 | 1024.3 |
| 20260831123251 | 77 | 135 | 0.0 | 0.0 | 0.00 | 0.00 | 0.00 | 99 | 1024.4 |
| 20260831122745 | 76 | 59 | 0.0 | 0.0 | 0.00 | 0.00 | 0.00 | 99 | 1024.3 |
| 20260831122241 | 75 | 101 | 0.0 | 0.0 | 0.00 | 0.00 | 0.00 | 99 | 1024.4 |
| 20260831121740 | 75 | 82 | 0.0 | 1.0 | 0.00 | 0.00 | 0.00 | 99 | 1024.1 |
| 20260831121237 | 74 | 345 | 1.0 | 1.0 | 0.00 | 0.00 | 0.00 | 99 | 1024.1 |
| 20260831120733 | 74 | 17 | 1.0 | 2.0 | 0.00 | 0.00 | 0.00 | 99 | 1024.1 |
| 20260831120232 | 74 | 342 | 1.0 | 1.0 | 0.00 | 0.00 | 0.00 | 99 | 1024.0 |
| 20260831115728 | 73 | 336 | 1.0 | 1.0 | 0.00 | 0.00 | 0.00 | 99 | 1024.1 |
| 20260831115224 | 73 | 340 | 1.0 | 2.0 | 0.00 | 0.00 | 0.00 | 99 | 1024.2 |
| 20260831114723 | 73 | 331 | 2.0 | 2.0 | 0.00 | 0.00 | 0.00 | 99 | 1023.8 |
| 20260831114222 | 73 | 335 | 1.0 | 3.0 | 0.00 | 0.00 | 0.00 | 99 | 1024.0 |
| 20260831113718 | 73 | 347 | 1.0 | 2.0 | 0.00 | 0.00 | 0.00 | 99 | 1023.8 |
| 20260831113213 | 73 | 339 | 1.0 | 2.0 | 0.00 | 0.00 | 0.00 | 99 | 1023.9 |
| 20260831112712 | 73 | 341 | 1.0 | 2.0 | 0.00 | 0.00 | 0.00 | 99 | 1023.9 |
| 20260831112207 | 73 | 336 | 1.0 | 2.0 | 0.00 | 0.00 | 0.00 | 99 | 1023.8 |
| 20260831111703 | 73 | 352 | 1.0 | 2.0 | 0.00 | 0.00 | 0.00 | 99 | 1023.6 |
| 20260831111159 | 73 | 335 | 2.0 | 2.0 | 0.00 | 0.00 | 0.00 | 99 | 1023.7 |
| 20260831110654 | 72 | 344 | 2.0 | 2.0 | 0.00 | 0.00 | 0.00 | 99 | 1023.7 |
| 20260831110144 | 73 | 315 | 1.0 | 2.0 | 0.00 | 0.00 | 0.00 | 99 | 1023.3 |
| 20260831105643 | 73 | 344 | 1.0 | 2.0 | 0.00 | 0.00 | 0.00 | 99 | 1023.4 |
| 20260831105138 | 73 | 334 | 2.0 | 3.0 | 0.00 | 0.00 | 0.00 | 99 | 1023.3 |
| 20260831104633 | 73 | 332 | 2.0 | 2.0 | 0.00 | 0.00 | 0.00 | 99 | 1023.3 |
| 20260831104130 | 73 | 341 | 2.0 | 2.0 | 0.00 | 0.00 | 0.00 | 99 | 1023.4 |
| 20260831103624 | 73 | 350 | 2.0 | 2.0 | 0.00 | 0.00 | 0.00 | 99 | 1023.3 |
| 20260831103120 | 73 | 330 | 1.0 | 2.0 | 0.00 | 0.00 | 0.00 | 99 | 1023.2 |
| 20260831102615 | 73 | 353 | 1.0 | 1.0 | 0.00 | 0.00 | 0.00 | 99 | 1023.4 |
| 20260831102110 | 73 | 357 | 1.0 | 3.0 | 0.00 | 0.00 | 0.00 | 99 | 1023.1 |
| 20260831101609 | 73 | 338 | 1.0 | 2.0 | 0.00 | 0.00 | 0.00 | 99 | 1023.3 |
| 20260831101105 | 73 | 352 | 1.0 | 2.0 | 0.00 | 0.00 | 0.00 | 99 | 1023.1 |
| 20260831100600 | 72 | 340 | 2.0 | 2.0 | 0.00 | 0.00 | 0.00 | 99 | 1023.2 |